| time (UTC) | temp F | wind direction | speed MPH | gust MPH | rain 1hr in | rain 24hr in | rain mn in | humidity % | barometer mb |
| 20260504110444 | 46 | 145 | 0.0 | 0.0 | 0.00 | 0.00 | 0.00 | 84 | 1004.6 |
| 20260504100407 | 47 | 146 | 0.0 | 0.0 | 0.00 | 0.00 | 0.00 | 81 | 1004.4 |
| 20260504081800 | 46 | 147 | 0.0 | 0.0 | 0.00 | 0.00 | 0.00 | 83 | 1004.6 |
| 20260504081256 | 46 | 144 | 0.0 | 0.0 | 0.00 | 0.00 | 0.00 | 83 | 1004.7 |
| 20260504080753 | 46 | 144 | 0.0 | 0.0 | 0.00 | 0.00 | 0.00 | 84 | 1004.7 |
| 20260504080249 | 46 | 144 | 0.0 | 0.0 | 0.00 | 0.00 | 0.00 | 83 | 1004.7 |
| 20260504070217 | 45 | 144 | 0.0 | 0.0 | 0.00 | 0.00 | 0.00 | 83 | 1004.8 |
| 20260504060137 | 44 | 142 | 0.0 | 0.0 | 0.00 | 0.00 | 0.00 | 84 | 1005.3 |
| 20260504050605 | 42 | 142 | 0.0 | 0.0 | 0.00 | 0.00 | 0.00 | 84 | 1005.2 |
| 20260504045559 | 42 | 142 | 0.0 | 0.0 | 0.00 | 0.00 | 0.00 | 84 | 1005.2 |
| 20260504045054 | 42 | 142 | 0.0 | 0.0 | 0.00 | 0.00 | 0.00 | 84 | 1005.2 |
| 20260504044552 | 42 | 142 | 0.0 | 0.0 | 0.00 | 0.00 | 0.00 | 85 | 1005.2 |
| 20260504044049 | 42 | 142 | 0.0 | 0.0 | 0.00 | 0.00 | 0.00 | 85 | 1005.4 |
| 20260504043546 | 42 | 142 | 0.0 | 0.0 | 0.00 | 0.00 | 0.00 | 84 | 1005.1 |
| 20260504043043 | 42 | 142 | 0.0 | 0.0 | 0.00 | 0.00 | 0.00 | 84 | 1005.2 |
| 20260504042540 | 42 | 142 | 0.0 | 0.0 | 0.00 | 0.00 | 0.00 | 84 | 1005.2 |
| 20260504042037 | 42 | 142 | 0.0 | 0.0 | 0.00 | 0.00 | 0.00 | 84 | 1005.0 |
| 20260504041533 | 42 | 142 | 0.0 | 0.0 | 0.00 | 0.00 | 0.00 | 84 | 1005.1 |
| 20260504041029 | 42 | 142 | 0.0 | 0.0 | 0.00 | 0.00 | 0.00 | 84 | 1005.1 |
| 20260504040527 | 42 | 142 | 0.0 | 0.0 | 0.00 | 0.00 | 0.00 | 84 | 1005.1 |
| 20260504040024 | 42 | 138 | 0.0 | 0.0 | 0.00 | 0.00 | 0.00 | 83 | 1005.4 |
| 20260504035521 | 42 | 143 | 0.0 | 0.0 | 0.00 | 0.00 | 0.00 | 83 | 1005.3 |
| 20260504035017 | 42 | 148 | 0.0 | 0.0 | 0.00 | 0.00 | 0.00 | 82 | 1005.4 |
| 20260504034515 | 42 | 148 | 0.0 | 0.0 | 0.00 | 0.00 | 0.00 | 82 | 1005.2 |
| 20260504034011 | 42 | 148 | 0.0 | 0.0 | 0.00 | 0.00 | 0.00 | 82 | 1005.2 |
| 20260504033509 | 42 | 148 | 0.0 | 0.0 | 0.00 | 0.00 | 0.00 | 82 | 1005.0 |
| 20260504033006 | 42 | 148 | 0.0 | 0.0 | 0.00 | 0.00 | 0.00 | 81 | 1005.1 |
| 20260504032503 | 42 | 148 | 0.0 | 0.0 | 0.00 | 0.00 | 0.00 | 80 | 1004.9 |
| 20260504032000 | 42 | 148 | 0.0 | 0.0 | 0.00 | 0.00 | 0.00 | 80 | 1004.9 |
| 20260504031456 | 43 | 148 | 0.0 | 0.0 | 0.00 | 0.00 | 0.00 | 79 | 1005.3 |
| 20260504030953 | 43 | 148 | 0.0 | 0.0 | 0.00 | 0.00 | 0.00 | 79 | 1005.0 |
| 20260504030450 | 43 | 148 | 0.0 | 0.0 | 0.00 | 0.00 | 0.00 | 79 | 1004.9 |
| 20260504025946 | 43 | 148 | 0.0 | 0.0 | 0.00 | 0.00 | 0.00 | 78 | 1004.9 |
| 20260504025443 | 43 | 148 | 0.0 | 0.0 | 0.00 | 0.00 | 0.00 | 78 | 1004.7 |
| 20260504024940 | 44 | 142 | 0.0 | 0.0 | 0.00 | 0.00 | 0.00 | 77 | 1004.7 |
| 20260504024437 | 44 | 142 | 0.0 | 0.0 | 0.00 | 0.00 | 0.00 | 77 | 1004.8 |
| 20260504023934 | 44 | 142 | 0.0 | 0.0 | 0.00 | 0.00 | 0.00 | 76 | 1004.6 |
| 20260504023431 | 44 | 142 | 0.0 | 0.0 | 0.00 | 0.00 | 0.00 | 75 | 1004.8 |
| 20260504022926 | 44 | 142 | 0.0 | 0.0 | 0.00 | 0.00 | 0.00 | 75 | 1004.9 |
| 20260504022423 | 45 | 142 | 0.0 | 0.0 | 0.00 | 0.00 | 0.00 | 74 | 1004.7 |
| 20260504021920 | 45 | 142 | 0.0 | 0.0 | 0.00 | 0.00 | 0.00 | 74 | 1004.6 |
| 20260504021417 | 45 | 142 | 0.0 | 0.0 | 0.00 | 0.00 | 0.00 | 73 | 1004.5 |
| 20260504020914 | 45 | 141 | 0.0 | 0.0 | 0.00 | 0.00 | 0.00 | 72 | 1004.3 |
| 20260504020411 | 45 | 145 | 0.0 | 0.0 | 0.00 | 0.00 | 0.00 | 72 | 1004.7 |
| 20260504015907 | 46 | 145 | 0.0 | 0.0 | 0.00 | 0.00 | 0.00 | 71 | 1004.6 |
| 20260504015403 | 46 | 145 | 0.0 | 0.0 | 0.00 | 0.00 | 0.00 | 70 | 1004.6 |
| 20260504014859 | 46 | 145 | 0.0 | 0.0 | 0.00 | 0.00 | 0.00 | 69 | 1004.5 |
| 20260504014355 | 46 | 144 | 0.0 | 0.0 | 0.00 | 0.00 | 0.00 | 69 | 1004.4 |
| 20260504013853 | 47 | 144 | 0.0 | 0.0 | 0.00 | 0.00 | 0.00 | 67 | 1004.4 |
| 20260504013351 | 47 | 144 | 0.0 | 0.0 | 0.00 | 0.00 | 0.00 | 67 | 1004.4 |
| 20260504012847 | 47 | 145 | 0.0 | 0.0 | 0.00 | 0.00 | 0.00 | 65 | 1004.6 |
| 20260504012345 | 48 | 145 | 0.0 | 0.0 | 0.00 | 0.00 | 0.00 | 65 | 1004.4 |
| 20260504011842 | 48 | 145 | 0.0 | 0.0 | 0.00 | 0.00 | 0.00 | 64 | 1004.1 |
| 20260504011338 | 48 | 145 | 0.0 | 0.0 | 0.00 | 0.00 | 0.00 | 63 | 1004.1 |
| 20260504010835 | 49 | 145 | 0.0 | 0.0 | 0.00 | 0.00 | 0.00 | 62 | 1004.5 |
| 20260504010330 | 49 | 145 | 0.0 | 0.0 | 0.00 | 0.00 | 0.00 | 60 | 1004.1 |
| 20260504005827 | 50 | 145 | 0.0 | 0.0 | 0.00 | 0.00 | 0.00 | 60 | 1004.2 |
| 20260504005324 | 50 | 145 | 0.0 | 0.0 | 0.00 | 0.00 | 0.00 | 58 | 1004.0 |
| 20260504004822 | 50 | 142 | 0.0 | 0.0 | 0.00 | 0.00 | 0.00 | 57 | 1004.2 |
| 20260504004319 | 51 | 144 | 0.0 | 0.0 | 0.00 | 0.00 | 0.00 | 55 | 1004.0 |
| 20260504003815 | 51 | 145 | 0.0 | 0.0 | 0.00 | 0.00 | 0.00 | 54 | 1004.1 |
| 20260504003313 | 52 | 145 | 0.0 | 0.0 | 0.00 | 0.00 | 0.00 | 53 | 1004.0 |
| 20260504002809 | 52 | 145 | 0.0 | 0.0 | 0.00 | 0.00 | 0.00 | 51 | 1003.9 |
| 20260504002306 | 53 | 145 | 0.0 | 0.0 | 0.00 | 0.00 | 0.00 | 49 | 1004.2 |
| 20260504001804 | 53 | 147 | 0.0 | 0.0 | 0.00 | 0.00 | 0.00 | 48 | 1003.9 |
| 20260504001300 | 54 | 148 | 0.0 | 0.0 | 0.00 | 0.00 | 0.00 | 46 | 1003.9 |
| 20260504000757 | 55 | 148 | 0.0 | 0.0 | 0.00 | 0.00 | 0.00 | 45 | 1003.8 |
| 20260504000254 | 55 | 148 | 0.0 | 0.0 | 0.00 | 0.00 | 0.00 | 45 | 1003.9 |
| 20260503235752 | 56 | 149 | 0.0 | 0.0 | 0.00 | 0.00 | 0.00 | 43 | 1003.8 |
| 20260503235249 | 56 | 151 | 0.0 | 0.0 | 0.00 | 0.00 | 0.00 | 45 | 1003.8 |
| 20260503234747 | 57 | 140 | 0.0 | 0.0 | 0.00 | 0.00 | 0.00 | 42 | 1003.7 |
| 20260503234245 | 57 | 141 | 0.0 | 0.0 | 0.00 | 0.00 | 0.00 | 39 | 1003.6 |
| 20260503233742 | 57 | 145 | 0.0 | 0.0 | 0.00 | 0.00 | 0.00 | 40 | 1003.5 |
| 20260503233237 | 58 | 148 | 0.0 | 0.0 | 0.00 | 0.00 | 0.00 | 38 | 1003.6 |
| 20260503232734 | 58 | 142 | 0.0 | 0.0 | 0.00 | 0.00 | 0.00 | 37 | 1003.7 |
| 20260503232232 | 59 | 147 | 0.0 | 0.0 | 0.00 | 0.00 | 0.00 | 37 | 1003.5 |
| 20260503231730 | 59 | 153 | 0.0 | 0.0 | 0.00 | 0.00 | 0.00 | 36 | 1003.5 |
| 20260503231226 | 60 | 145 | 0.0 | 0.0 | 0.00 | 0.00 | 0.00 | 37 | 1003.4 |
| 20260503230722 | 60 | 149 | 0.0 | 0.0 | 0.00 | 0.00 | 0.00 | 35 | 1003.4 |
| 20260503230220 | 60 | 150 | 0.0 | 1.0 | 0.00 | 0.00 | 0.00 | 36 | 1003.3 |
| 20260503225717 | 60 | 142 | 0.0 | 0.0 | 0.00 | 0.00 | 0.00 | 37 | 1003.3 |
| 20260503225217 | 60 | 150 | 0.0 | 0.0 | 0.00 | 0.00 | 0.00 | 34 | 1003.4 |
| 20260503224715 | 61 | 138 | 0.0 | 0.0 | 0.00 | 0.00 | 0.00 | 33 | 1003.3 |
| 20260503224212 | 61 | 131 | 0.0 | 0.0 | 0.00 | 0.00 | 0.00 | 34 | 1003.5 |
| 20260503223710 | 61 | 160 | 1.0 | 1.0 | 0.00 | 0.00 | 0.00 | 35 | 1003.6 |
| 20260503223207 | 61 | 143 | 0.0 | 1.0 | 0.00 | 0.00 | 0.00 | 33 | 1003.4 |
| 20260503222703 | 61 | 148 | 0.0 | 0.0 | 0.00 | 0.00 | 0.00 | 35 | 1003.6 |
| 20260503222201 | 61 | 178 | 0.0 | 1.0 | 0.00 | 0.00 | 0.00 | 33 | 1003.6 |
| 20260503221700 | 61 | 138 | 0.0 | 0.0 | 0.00 | 0.00 | 0.00 | 32 | 1003.6 |
| 20260503221156 | 61 | 137 | 0.0 | 0.0 | 0.00 | 0.00 | 0.00 | 34 | 1003.7 |
| 20260503220653 | 61 | 148 | 1.0 | 1.0 | 0.00 | 0.00 | 0.00 | 32 | 1003.7 |
| 20260503220149 | 60 | 172 | 1.0 | 1.0 | 0.00 | 0.00 | 0.00 | 35 | 1003.7 |
| 20260503215647 | 61 | 108 | 0.0 | 0.0 | 0.00 | 0.00 | 0.00 | 34 | 1003.6 |
| 20260503215143 | 61 | 124 | 0.0 | 0.0 | 0.00 | 0.00 | 0.00 | 36 | 1003.8 |
| 20260503214643 | 61 | 145 | 0.0 | 1.0 | 0.00 | 0.00 | 0.00 | 34 | 1003.8 |
| 20260503214138 | 61 | 144 | 0.0 | 0.0 | 0.00 | 0.00 | 0.00 | 34 | 1003.7 |
| 20260503213637 | 61 | 104 | 0.0 | 1.0 | 0.00 | 0.00 | 0.00 | 35 | 1003.8 |
| 20260503213133 | 61 | 186 | 0.0 | 0.0 | 0.00 | 0.00 | 0.00 | 35 | 1003.9 |
| 20260503212631 | 61 | 124 | 0.0 | 1.0 | 0.00 | 0.00 | 0.00 | 34 | 1003.8 |
| 20260503212128 | 61 | 150 | 0.0 | 1.0 | 0.00 | 0.00 | 0.00 | 35 | 1003.9 |
| 20260503211626 | 61 | 112 | 2.0 | 3.0 | 0.00 | 0.00 | 0.00 | 31 | 1003.8 |
| 20260503211121 | 61 | 165 | 0.0 | 0.0 | 0.00 | 0.00 | 0.00 | 33 | 1003.6 |
| 20260503210618 | 61 | 149 | 0.0 | 1.0 | 0.00 | 0.00 | 0.00 | 33 | 1003.8 |
| 20260503210115 | 61 | 125 | 1.0 | 1.0 | 0.00 | 0.00 | 0.00 | 36 | 1003.5 |
| 20260503205610 | 61 | 143 | 1.0 | 1.0 | 0.00 | 0.00 | 0.00 | 35 | 1003.5 |
| 20260503205107 | 60 | 145 | 0.0 | 0.0 | 0.00 | 0.00 | 0.00 | 34 | 1003.8 |
| 20260503204604 | 60 | 168 | 2.0 | 2.0 | 0.00 | 0.00 | 0.00 | 34 | 1003.7 |
| 20260503204101 | 60 | 138 | 0.0 | 1.0 | 0.00 | 0.00 | 0.00 | 35 | 1003.8 |
| 20260503203558 | 60 | 159 | 0.0 | 0.0 | 0.00 | 0.00 | 0.00 | 32 | 1003.9 |
| 20260503203055 | 60 | 127 | 0.0 | 0.0 | 0.00 | 0.00 | 0.00 | 35 | 1003.8 |
| 20260503202553 | 60 | 166 | 1.0 | 1.0 | 0.00 | 0.00 | 0.00 | 35 | 1003.8 |
| 20260503202051 | 60 | 140 | 0.0 | 0.0 | 0.00 | 0.00 | 0.00 | 37 | 1004.0 |
| 20260503201549 | 60 | 199 | 2.0 | 2.0 | 0.00 | 0.00 | 0.00 | 33 | 1004.0 |
| 20260503201045 | 59 | 148 | 1.0 | 1.0 | 0.00 | 0.00 | 0.00 | 34 | 1004.2 |
| 20260503200541 | 60 | 172 | 1.0 | 1.0 | 0.00 | 0.00 | 0.00 | 35 | 1004.3 |
| 20260503200038 | 60 | 133 | 0.0 | 0.0 | 0.00 | 0.00 | 0.00 | 36 | 1004.1 |
| 20260503195536 | 60 | 179 | 0.0 | 0.0 | 0.00 | 0.00 | 0.00 | 37 | 1004.3 |
| 20260503195032 | 60 | 168 | 0.0 | 1.0 | 0.00 | 0.00 | 0.00 | 36 | 1004.3 |
| 20260503194530 | 60 | 162 | 1.0 | 1.0 | 0.00 | 0.00 | 0.00 | 35 | 1004.3 |
| 20260503194029 | 60 | 321 | 1.0 | 2.0 | 0.00 | 0.00 | 0.00 | 37 | 1004.6 |
| 20260503193526 | 59 | 153 | 1.0 | 1.0 | 0.00 | 0.00 | 0.00 | 37 | 1004.5 |
| 20260503193021 | 60 | 311 | 2.0 | 3.0 | 0.00 | 0.00 | 0.00 | 34 | 1004.8 |
| 20260503192518 | 60 | 148 | 0.0 | 0.0 | 0.00 | 0.00 | 0.00 | 37 | 1004.7 |
| 20260503192014 | 60 | 234 | 1.0 | 2.0 | 0.00 | 0.00 | 0.00 | 37 | 1004.7 |
| 20260503191511 | 59 | 148 | 2.0 | 2.0 | 0.00 | 0.00 | 0.00 | 41 | 1004.8 |
| 20260503191008 | 60 | 156 | 1.0 | 2.0 | 0.00 | 0.00 | 0.00 | 36 | 1004.9 |
| 20260503190504 | 59 | 142 | 0.0 | 0.0 | 0.00 | 0.00 | 0.00 | 42 | 1004.9 |
| 20260503190002 | 58 | 184 | 1.0 | 2.0 | 0.00 | 0.00 | 0.00 | 39 | 1005.0 |
| 20260503185458 | 59 | 171 | 1.0 | 1.0 | 0.00 | 0.00 | 0.00 | 36 | 1005.0 |
| 20260503184957 | 58 | 141 | 1.0 | 2.0 | 0.00 | 0.00 | 0.00 | 38 | 1005.2 |
| 20260503184454 | 59 | 167 | 1.0 | 1.0 | 0.00 | 0.00 | 0.00 | 39 | 1005.2 |
| 20260503183950 | 58 | 109 | 2.0 | 2.0 | 0.00 | 0.00 | 0.00 | 40 | 1005.2 |
| 20260503183447 | 59 | 138 | 0.0 | 1.0 | 0.00 | 0.00 | 0.00 | 38 | 1005.3 |
| 20260503182944 | 58 | 136 | 0.0 | 1.0 | 0.00 | 0.00 | 0.00 | 38 | 1005.3 |
| 20260503182443 | 58 | 169 | 2.0 | 2.0 | 0.00 | 0.00 | 0.00 | 37 | 1005.4 |
| 20260503181940 | 58 | 143 | 3.0 | 4.0 | 0.00 | 0.00 | 0.00 | 40 | 1005.5 |
| 20260503181437 | 58 | 160 | 1.0 | 1.0 | 0.00 | 0.00 | 0.00 | 37 | 1005.3 |
| 20260503180933 | 57 | 159 | 1.0 | 1.0 | 0.00 | 0.00 | 0.00 | 39 | 1005.6 |
| 20260503180432 | 58 | 138 | 2.0 | 2.0 | 0.00 | 0.00 | 0.00 | 38 | 1005.6 |
| 20260503175928 | 57 | 271 | 1.0 | 2.0 | 0.00 | 0.00 | 0.00 | 40 | 1005.6 |
| 20260503175426 | 58 | 140 | 1.0 | 2.0 | 0.00 | 0.00 | 0.00 | 38 | 1005.6 |
| 20260503174921 | 58 | 286 | 2.0 | 3.0 | 0.00 | 0.00 | 0.00 | 38 | 1005.7 |
| 20260503174420 | 57 | 95 | 0.0 | 0.0 | 0.00 | 0.00 | 0.00 | 42 | 1005.7 |
| 20260503173920 | 57 | 189 | 1.0 | 2.0 | 0.00 | 0.00 | 0.00 | 42 | 1005.8 |
| 20260503173416 | 57 | 156 | 0.0 | 0.0 | 0.00 | 0.00 | 0.00 | 41 | 1005.9 |
| 20260503172913 | 56 | 86 | 0.0 | 1.0 | 0.00 | 0.00 | 0.00 | 44 | 1005.9 |
| 20260503172411 | 57 | 122 | 0.0 | 0.0 | 0.00 | 0.00 | 0.00 | 39 | 1005.8 |
| 20260503171907 | 57 | 144 | 0.0 | 0.0 | 0.00 | 0.00 | 0.00 | 45 | 1005.9 |
| 20260503171404 | 57 | 160 | 0.0 | 0.0 | 0.00 | 0.00 | 0.00 | 38 | 1005.8 |
| 20260503170901 | 57 | 154 | 2.0 | 2.0 | 0.00 | 0.00 | 0.00 | 40 | 1005.9 |
| 20260503170357 | 57 | 145 | 2.0 | 2.0 | 0.00 | 0.00 | 0.00 | 39 | 1006.0 |
| 20260503150749 | 55 | 184 | 0.0 | 1.0 | 0.00 | 0.00 | 0.00 | 41 | 1006.7 |
| 20260503150246 | 55 | 203 | 1.0 | 2.0 | 0.00 | 0.00 | 0.00 | 44 | 1006.6 |
| 20260503140210 | 51 | 94 | 2.0 | 2.0 | 0.00 | 0.00 | 0.00 | 45 | 1006.8 |
| 20260503131140 | 50 | 147 | 2.0 | 2.0 | 0.00 | 0.00 | 0.00 | 50 | 1007.0 |
| 20260503130637 | 50 | 89 | 1.0 | 1.0 | 0.00 | 0.00 | 0.00 | 50 | 1007.0 |
| 20260503130135 | 49 | 166 | 0.0 | 1.0 | 0.00 | 0.00 | 0.00 | 53 | 1006.9 |